{"data":{"norad_id":60390,"intl_designator":"2024-140M","name":"QIANFAN-12","alt_names":[],"object_type":"PAYLOAD","status":"ACTIVE","operator":null,"country":"PRC","launch_date":"2024-08-06","launch_site_code":"TAISC","launch_vehicle":null,"mission":null,"orbit_class":"UNKNOWN","rcs_meters":null,"size_class":null,"mass_kg":null,"dimensions":null,"purposes":[],"wikipedia_slug":null,"has_3d_model":false,"image_url":null,"decayed_at":null,"tle_current":{"epoch":"2026-09-22T22:13:00.767712Z","epoch_age_seconds":74100,"freshness":"FRESH","line1":"1 60390U 24140M   26265.92570333  .00000040  00000+0  42470-4 0  9996","line2":"2 60390  88.9647 269.7599 0015242 102.9291 257.3564 13.51023767105617","mean_motion":13.51023767,"eccentricity":0.0015242,"inclination_deg":88.9647,"raan_deg":269.7599,"arg_perigee_deg":102.9291,"mean_anomaly_deg":257.3564,"bstar":4.247e-5,"rev_number":10561,"period_min":106.58583773086,"perigee_km":1057.1440952934,"apogee_km":1079.8444059978,"semimajor_km":7446.6312506456,"source":"CELESTRAK","updated_at":"2026-09-23T09:00:20.599979Z"}}}